TimeCST,TemperatureF,Dew PointF,Humidity,Sea Level PressureIn,VisibilityMPH,Wind Direction,Wind SpeedMPH,Gust SpeedMPH,PrecipitationIn,Events,Conditions,WindDirDegrees,DateUTC
1:52 AM,24.1,21.0,88,30.26,9.0,NW,3.5,-,N/A,,Clear,320,2013-01-09 07:52:00
2:52 AM,25.0,21.9,88,30.28,8.0,Calm,Calm,-,N/A,,Clear,0,2013-01-09 08:52:00
3:52 AM,21.9,19.9,92,30.30,7.0,Calm,Calm,-,N/A,,Clear,0,2013-01-09 09:52:00
4:52 AM,24.1,21.9,91,30.31,7.0,NNW,4.6,-,N/A,,Clear,330,2013-01-09 10:52:00
5:52 AM,21.0,18.0,88,30.33,7.0,NW,8.1,-,N/A,,Clear,320,2013-01-09 11:52:00
6:52 AM,21.9,19.0,89,30.35,6.0,Calm,Calm,-,N/A,,Clear,0,2013-01-09 12:52:00
7:52 AM,21.0,17.1,85,30.40,5.0,NNW,5.8,-,N/A,,Clear,340,2013-01-09 13:52:00
8:52 AM,28.0,24.1,85,30.43,4.0,NW,5.8,-,N/A,,Clear,320,2013-01-09 14:52:00
9:52 AM,35.1,30.0,82,30.43,6.0,WNW,9.2,-,N/A,,Haze,300,2013-01-09 15:52:00
11:52 AM,43.0,30.9,62,30.42,8.0,Calm,Calm,-,N/A,,Clear,0,2013-01-09 17:52:00
12:52 PM,46.0,32.0,58,30.40,9.0,Calm,Calm,-,N/A,,Clear,0,2013-01-09 18:52:00
1:52 PM,48.9,32.0,52,30.39,10.0,SSE,3.5,-,N/A,,Clear,160,2013-01-09 19:52:00
2:52 PM,51.1,33.1,50,30.39,10.0,SSE,4.6,-,N/A,,Clear,150,2013-01-09 20:52:00
3:52 PM,50.0,33.1,52,30.41,10.0,SSE,6.9,-,N/A,,Clear,160,2013-01-09 21:52:00
4:52 PM,46.9,33.1,59,30.40,10.0,ESE,3.5,-,N/A,,Clear,110,2013-01-09 22:52:00
5:52 PM,37.9,30.0,73,30.40,10.0,Calm,Calm,-,N/A,,Clear,0,2013-01-09 23:52:00
6:52 PM,35.1,28.0,76,30.41,10.0,Calm,Calm,-,N/A,,Clear,0,2013-01-10 00:52:00
7:52 PM,34.0,28.9,82,30.41,10.0,Calm,Calm,-,N/A,,Clear,0,2013-01-10 01:52:00
8:52 PM,33.1,28.0,82,30.41,10.0,East,3.5,-,N/A,,Clear,100,2013-01-10 02:52:00
9:52 PM,43.0,30.0,60,30.39,10.0,East,8.1,-,N/A,,Clear,100,2013-01-10 03:52:00
10:52 PM,43.0,30.0,60,30.37,10.0,East,8.1,-,N/A,,Clear,90,2013-01-10 04:52:00
11:52 PM,37.0,28.0,70,30.36,10.0,East,4.6,-,N/A,,Clear,100,2013-01-10 05:52:00